User: anonymous   Login
Location: Brno
(49.2000°N, 16.6330°E)
Time: 07:29:30
(UTC+01:00)
Language:

Meteor 1-4 Rocket - Orbit

View from above orbital plane
View from above orbital plane
View from above satellite
View from above satellite

Ground track
Ground track

The orbit data is extracted from the following two-line orbital elements,

1 04394U 70037B   16041.55132848  .00004073  00000-0  15196-3 0  9994
2 04394  81.2407 232.5479 0042876   5.5070 354.6626 15.26272228489572
Epoch (UTC): 10 February 2016 13:13:54
Eccentricity: 0.0042876
inclination: 81.2407°
perigee height: 457 km
apogee height: 516 km
right ascension of ascending node: 232.5479°
argument of perigee: 5.5070°
revolutions per day: 15.26272228
mean anomaly at epoch: 354.6626°
orbit number at epoch: 48957

The dashed part of the orbit path shows where the satellite is in the earth's shadow,  

DLR